www.pogodaiklimat.ru

Погода и климат >> Архив погоды >> ОАЭ >> Шарджа


ПОГОДА в Шардже

  • Прогноз погоды в Шардже
  • Монитор погоды в Шардже

АРХИВ ПОГОДЫ в Шардже

Время (UTC), дата Ветер
(напр.,м/с)
 
Видим.   Явления Облачность Т
(С)
Тd
(С)
f
(%)
Тe
(С)
Тes
(С)
Комфортность P
(гПа)
Po
(гПа)
Тmin
(С)
Tmax
(С)
R
(мм)
R24
(мм)
S
(см)
00 14.08 СВ 2 10 км 1/0
[Ac trans]
+33.7 +19.2 42 +39 +39 очень
душно
998.1 994.2
03 14.08 ЮВ 3 7000 м пыль 1/0
[Ci fib]
+34.1 +26.1 63 +50 +51 опасность
перегрева
999.2 995.3
06 14.08 Ю 3 9000 м пыль ясно +40.0 +21.5 35 +47 +60 опасность
перегрева
1000.3 996.5 +33.0
09 14.08 СЗ 5 10 км ясно +41.5 +24.6 39 +53 +64 опасность
перегрева
998.9 995.1
12 14.08 СЗ 6 10 км ясно +40.5 +24.2 40 +52 +55 опасность
перегрева
997.3 993.5
15 14.08 СЗ 4 10 км 5/0
[Ci sp]
+39.4 +20.4 33 +45 +45 опасность
перегрева
998.0 994.2
18 14.08 СЗ 3 10 км ясно +37.3 +20.2 37 +43 +43 опасность
перегрева
999.7 995.8 +43.2
21 14.08 С 2 10 км ясно +36.0 +17.8 34 +39 +39 очень
душно
999.5 995.6
00 15.08 СВ 2 10 км ясно +33.6 +26.5 66 +50 +50 опасность
перегрева
999.4 995.5
03 15.08 Ю 4 10 км ясно +34.2 +23.5 54 +45 +46 опасность
перегрева
1000.8 996.9
06 15.08 Ю 5 7000 м пыль ясно +40.0 +17.7 27 +43 +50 опасность
перегрева
1001.4 997.6 +32.6
09 15.08 ЮВ 6 8000 м пыль ясно +45.1 +8.1 11 +43 +52 опасность
перегрева
999.9 996.2
12 15.08 СЗ 5 6000 м пыль ясно +41.3 +21.2 32 +48 +53 опасность
перегрева
998.2 994.4
15 15.08 С 4 7000 м пыль ясно +38.8 +20.9 36 +45 +45 опасность
перегрева
998.6 994.8
18 15.08 СВ 2 7000 м пыль ясно +35.5 +21.7 45 +44 +44 опасность
перегрева
1000.0 996.1 +46.1
21 15.08 С 2 10 км ясно +33.5 +19.9 45 +40 +40 очень
душно
1000.1 996.2
00 16.08 В 2 10 км ясно +31.7 +18.2 45 +36 +36 очень
душно
999.5 995.5
03 16.08 Ю 4 10 км ясно +33.2 +21.8 51 +41 +43 опасность
перегрева
1000.5 996.6
06 16.08 Ю 7 10 км ясно +39.3 +17.5 28 +42 +47 опасность
перегрева
1000.7 996.9 +31.0
09 16.08 нст 2 8000 м пыль ясно +41.6 +20.7 30 +47 +68 опасность
перегрева
999.2 995.4
12 16.08 СЗ 5 6000 м пыль ясно +39.1 +23.7 42 +50 +54 опасность
перегрева
997.6 993.8
15 16.08 С 3 5000 м пыль ясно +38.8 +18.9 31 +43 +43 опасность
перегрева
997.7 993.9
18 16.08 В 1 6000 м пыль ясно +35.6 +21.0 43 +43 +43 опасность
перегрева
998.5 994.6 +44.4
21 16.08 СЗ 2 6000 м пыль ясно +35.2 +18.6 38 +40 +40 очень
душно
997.8 993.9
00 17.08 СВ 2 7000 м пыль ясно +32.1 +24.8 65 +45 +45 опасность
перегрева
997.3 993.4
03 17.08 Ю 3 8000 м пыль ясно +33.7 +25.9 64 +49 +51 опасность
перегрева
998.1 994.3
06 17.08 Ю 5 5000 м пыль ясно +39.8 +16.7 26 +42 +51 опасность
перегрева
999.2 995.4 +30.8
09 17.08 З 6 6000 м пыль ясно +39.7 +22.7 38 +49 +56 опасность
перегрева
998.2 994.4
12 17.08 СЗ 5 6000 м пыль 1/1 1200 м
[Cu hum]
+37.9 +27.0 54 +55 +59 опасность
перегрева
996.6 992.8
15 17.08 СЗ 3 10 км 1/0
[Ci fib]
+38.3 +16.6 28 +41 +41 опасность
перегрева
997.2 993.4
18 17.08 СВ 1 10 км ясно +36.5 +15.0 28 +38 +38 очень
душно
997.9 994.1 +42.4
21 17.08 СВ 2 10 км ясно +33.7 +18.6 41 +38 +38 очень
душно
997.7 993.8
00 18.08 В 1 10 км ясно +31.6 +20.3 51 +38 +38 очень
душно
998.2 994.3
03 18.08 ЮВ 4 10 км ясно +32.8 +17.2 39 +36 +37 очень
душно
1000.1 996.2
06 18.08 ЮВ 7 10 км ясно +38.3 +20.3 35 +44 +49 опасность
перегрева
1001.2 997.3 +30.7
09 18.08 В 3 10 км ясно +42.9 +16.6 22 +45 +62 опасность
перегрева
1000.2 996.4
12 18.08 В 4 6000 м пыль ясно +40.0 +26.6 47 +56 +61 опасность
перегрева
998.8 995.0
15 18.08 В 5 10 км 4/0
[Ac trans Ci fib]
+38.0 +22.4 41 +47 +47 опасность
перегрева
999.6 995.7
18 18.08 В 3 10 км ясно +36.1 +17.6 34 +40 +40 очень
душно
1001.2 997.3 +44.6
21 18.08 СВ 1 10 км ясно +33.0 +20.6 48 +40 +40 очень
душно
1001.2 997.3
00 19.08 В 2 10 км ясно +31.6 +20.4 52 +39 +39 очень
душно
1001.2 997.3
03 19.08 В 5 10 км ясно +31.4 +23.0 61 +42 +42 опасность
перегрева
1002.7 998.8
06 19.08 ЮВ 7 10 км ясно +37.5 +21.3 39 +45 +48 опасность
перегрева
1004.1 1000.2 +29.2
09 19.08 ЮВ 3 10 км ясно +42.5 +16.0 22 +44 +61 опасность
перегрева
1002.5 998.7
12 19.08 СЗ 6 7000 м пыль 1/1 1350 м
[Cu hum]
+39.2 +24.4 43 +51 +53 опасность
перегрева
1001.4 997.5
15 19.08 С 4 9000 м пыль 1/0
[Ci sp]
+37.0 +22.2 43 +46 +46 опасность
перегрева
1001.9 998.0
18 19.08 СВ 3 10 км ясно +34.7 +21.8 47 +43 +43 опасность
перегрева
1003.5 999.6 +43.8
21 19.08 В 2 10 км ясно +31.0 +22.1 59 +40 +40 очень
душно
1002.7 998.8
00 20.08 В 2 10 км ясно +29.4 +22.4 66 +38 +38 очень
душно
1003.3 999.3
03 20.08 ЮВ 5 10 км ясно +29.9 +21.4 60 +38 +38 очень
душно
1005.3 1001.4
06 20.08 Ю 6 10 км ясно +36.7 +20.1 38 +42 +48 опасность
перегрева
1005.7 1001.8 +28.8
09 20.08 ЮВ 3 10 км ясно +42.3 +15.1 21 +43 +62 опасность
перегрева
1004.0 1000.3
12 20.08 СЗ 6 8000 м пыль ясно +38.3 +22.1 39 +46 +49 опасность
перегрева
1002.7 998.9
15 20.08 С 3 7000 м пыль ясно +35.3 +25.3 56 +49 +49 опасность
перегрева
1002.9 999.0
18 20.08 СВ 2 7000 м пыль ясно +32.9 +24.8 63 +46 +46 опасность
перегрева
1004.0 1000.0 +42.9

 

Местоположение метеостанции Шарджа (ОАЭ): широта 25.33 долгота 55.52 высота над уровнем моря 33 м.

В архиве по умолчанию представлена погода в Шардже за последнюю неделю. Архивные данные за месяц целиком и за предыдущие месяцы, начиная с января 2011 года, Вы можете получить, выбрав интересующий диапазон дат из раскрывающегося списка и нажав кнопку "Ввод!".


*Определитесь, кто Вы:
робот инопланетянин человек

Внимание! Время в таблицах - всемирное. Для получения местного времени необходимо прибавить поправку, которая равна 4 ч.

Смотрите также архив погоды в соседних городах и на ближайших метеорологических станциях:

Погода в Дубае (ОАЭ) (21 км)
Погода в Рай-эль-Хайма аэропорту (ОАЭ) (52 км)
Погода в Аль-Мактум аэропорту (ОАЭ) (60 км)
Погода в Дибе (Оман) (80 км)
Погода в Фуджейре (ОАЭ) (85 км)
Погода на Острове Абу-Муса (Иран) (89 км)
Погода на Острове Сирри (Иран) (117 км)
Погода в Эль-Хасаб аэропорту (Оман) (117 км)
Погода в Эль-Айне (ОАЭ) (118 км)
Погода в Эль-Хасабе (Оман) (122 км)

Пояснения к столбцам:

Ветер - указаны скорость ветра в м/с - средняя за 10 мин, порывы в срок и между сроками (в фигурных скобках) и направление, откуда дует ветер: С - северный, СВ - северо-восточный, В - восточный, ЮВ - юго-восточный, Ю - южный, ЮЗ - юго-западный, З - западный, СЗ - северо-западный.
Видимость - горизонтальная дальность видимости в метрах или километрах. При видимости от 1 до 10 км при отсутствии осадков обычно наблюдается дымка, при ухудшении видимости до 1 км и менее - туман. В сухую погоду видимость может ухудшаться дымом, пылью или мглою.
Явления - указаны атмосферные явления, наблюдавшиеся в срок или в последний час перед сроком; фигурными скобками обозначены явления, наблюдавшиеся между сроками (за 1-3 часа до срока); квадратными скобками обозначены град или гололедные отложения с указанием их диаметра в мм.
Облачность - указаны через наклонную черту общая и нижняя облачность в баллах и высота нижней границы облаков в метрах; квадратными скобками обозначены формы облаков: Ci - перистые, Cs - перисто-слоистые, Cc - перисто-кучевые, Ac - высококучевые, As - высокослоистые, Sc - слоисто-кучевые, Ns - слоисто-дождевые, Cu - кучевые, Cb - кучево-дождевые. Подробнее классификацию облаков см. в Атласе облаков (PDF).
T - Температура воздуха - температура, измеренная на высоте 2 м над землей.
Td - Температура точки росы - температура, при понижении до которой содержащийся в воздухе водяной пар достигнет насыщения.
f - Относительная влажность воздуха - влажноcть воздуха, измеренная на высоте 2 м над землей.
Te - Эффективная температура - температура, которую ощущает одетый по сезону человек в тени. Характеристика душности погоды. При расчете учитывается влияние влажности воздуха и скорости ветра на теплоощущения человека.
Tes - Эффективная температура на солнце - температура, которую ощущает человек, с поправкой на солнечный нагрев. Характеристика знойности погоды. Зависит от высоты солнца над горизонтом, облачности и скорости ветра. Ночью, в пасмурную погоду, а также при ветре 12 м/с и более поправка равна нулю.
P - Атмосферное давление - приведенное к уровню моря атмосферное давление.
Po - Атмосферное давление - измеренное на уровне метеостанции атмосферное давление.
Tmin - Минимальная температура - минимум температуры воздуха на высоте 2 м над землей.
Tmax - Максимальная температура - максимум температуры воздуха на высоте 2 м над землей.
R - Количество осадков - Количество выпавших осадков за период времени, мм. При наведении курсора мыши на число - период времени, за который выпало указанное количество осадков.
R24 - Количество осадков - Количество выпавших осадков за 24 часа, мм.
S - Снежный покров - Высота снежного покрова, см. При наведении курсора мыши на число - состояние снежного покрова и степень покрытия местности в баллах.